Skip to main content Skip to accessibility
This website is not compatible with your web browser. You should install a newer browser. If you live in Jersey and need help upgrading call the States of Jersey web team on 440099.
Homegov.je

Information and public services for the Island of Jersey

L'înformâtion et les sèrvices publyis pouor I'Île dé Jèrri

  • Choose the service you want to log in to:

  • gov.je

    Update your notification preferences

  • one.gov.je

    Access government services

  • CAESAR

    Clear goods through customs or claim relief

  • Talentlink

    View or update your States of Jersey job application

Local METARs

METAR EGJJ 130820Z VRB02KT 9999 FEW001 24/20 Q1012

METAR EGJB 130850Z 16005KT 130V190 9999 FEW005 21/18 Q1012

METAR EGJA 130850Z VRB02KT CAVOK 23/18 Q1012

METAR LFRD 130900Z AUTO VRB02KT 5000 BR OVC004 19/19 Q1012 TEMPO TSRA BKN030CB

METAR LFRC 130900Z AUTO 03004KT 360V080 CAVOK 23/18 Q1012 TEMPO 4000 SHRA BKN010CB

 

 

 

​Apologies to the disruption to normal service. Commercial Aviation Services are available from the Jersey Met Forecaster 01534 448765.

Times are in Greenwich Mean Time (GMT) and not British Summer Time (BST). They will be one hour different during BST.

Back to top
rating button